Regional Weather Roundup
Issued by NWS

Home | Current Version | Previous Version | Graphics & Text | Print | Product List | Glossary On
Versions: 1 2 3 4 5 6 7 8 9 10 11 12 13 14 15 16 17 18 19 20 21 22 23 24 25 26 27 28 29 30 31 32 33 34 35 36 37 38 39 40 41 42 43 44 45 46 47 48 49 50
000
ASUS43 KBIS 041502
RWRND

NORTH DAKOTA REGIONAL WEATHER ROUNDUP
NATIONAL WEATHER SERVICE BISMARCK ND
1000 AM CDT SAT JUL 04 2015

NOTE: "FAIR" INDICATES FEW OR NO CLOUDS BELOW 12,000 FEET WITH NO
SIGNIFICANT WEATHER AND/OR OBSTRUCTIONS TO VISIBILITY.


NDZ001>003-009>011-017-041600-
NORTHWEST NORTH DAKOTA

CITY           SKY/WX    TMP DP  RH WIND       PRES   REMARKS
WILLISTON      SUNNY     77  62  59 S7        29.76S
MINOT          MOSUNNY   77  62  59 S7        29.76F HAZE
$$

NDZ018>021-031>035-040>046-041600-
SOUTHWEST NORTH DAKOTA

CITY           SKY/WX    TMP DP  RH WIND       PRES   REMARKS
BISMARCK       SUNNY     74  67  78 SE7       29.82S HAZE
DICKINSON      SUNNY     74  63  68 S10       29.79F HAZE
GARRISON         N/A     73  65  75 S9        29.79F
HETTINGER ARPT MOSUNNY   72  63  73 S6        29.84S HAZE
$$

NDZ004>008-012>016-024-026-027-054-041600-
NORTHEAST NORTH DAKOTA

CITY           SKY/WX    TMP DP  RH WIND       PRES   REMARKS
GRAND FORKS    CLOUDY    74  65  73 S8        29.84F HAZE
GRND FRKS AFB  SUNNY     74  66  76 S9        29.84F HAZE
DEVILS LAKE    SUNNY     75  64  69 S10       29.82F
$$

NDZ022-023-025-028>030-036>039-047>053-041600-
SOUTHEAST NORTH DAKOTA

CITY           SKY/WX    TMP DP  RH WIND       PRES   REMARKS
FARGO          SUNNY     75  66  73 S8        29.88S HAZE
JAMESTOWN      SUNNY     76  66  71 S6        29.85F HAZE
$$



USA.gov is the U.S. government's official web portal to all federal, state and local government web resources and services.